Location: Unspecified
(0.0000°N, 0.0000°E)
Time: 18:16:48
(UTC+00:00)

Kosmos-2213 - Pass Details

Date: 22 November 2025
Orbit: 1410 x 1414 km, 82.6° (Epoch: 04 December)

Event Time Altitude Azimuth Distance (km) Brightness Sun altitude
Rises 02:29:56 0° 157° (SSE) 4,484 10.5 -45.1°
Reaches altitude 10° 02:33:29 10° 144° (SE) 3,506 9.9 -44.4°
Maximum altitude 02:39:52 24° 93° (E) 2,565 9.0 -43.0°
Drops below altitude 10° 02:46:14 10° 43° (NE) 3,500 9.5 -41.6°
Sets 02:49:42 0° 30° (NNE) 4,474 10.0 -40.8°
